This demonstration page uses our WeatherBlox Daily Observations layout. Learn more.

Left ArrowRight Arrow

39.01783, -85.05884

Hourly Observations for September 13, 2021

Temp ( °F °C ) Dew Point ( °F °C ) Humidity (%) Winds ( mph kmh ) Pressure ( in mb ) Visibility ( mi km ) Precip ( " mm )
12:52 am 00:52 Clear 73 22.8 66 18.9 79 79 SSW 6 9 30.13 1020 10 16 0.00 0.00
1:52 am 01:52 Mostly Cloudy 73 22.8 66 18.9 79 79 WSW 6 9 30.14 1021 10 16 0.00 0.00
2:52 am 02:52 Mostly Cloudy 72 22.2 65 18.3 79 79 SW 6 9 30.14 1021 10 16 0.00 0.00
3:52 am 03:52 Partly Cloudy 68 20 64 17.8 87 87 SSW 6 9 30.14 1021 10 16 0.00 0.00
4:52 am 04:52 Partly Cloudy 68 20 64 17.8 87 87 SW 3 6 30.14 1021 9 14 0.00 0.00
5:52 am 05:52 Partly Cloudy 68 20 64 17.8 87 87 SSW 7 11 30.14 1021 10 16 0.00 0.00
6:52 am 06:52 Mostly Clear 67 19.4 64 17.8 91 91 SSW 6 9 30.16 1021 8 13 0.00 0.00
7:52 am 07:52 Partly Cloudy with Mist and Fog 67 19.4 64 17.8 91 91 S 7 11 30.18 1022 6 10 0.00 0.00
8:52 am 08:52 Sunny 70 21.1 65 18.3 84 84 SSW 7 11 30.18 1022 8 13 0.00 0.00
9:52 am 09:52 Sunny 73 22.8 66 18.9 79 79 SSW 6 9 30.17 1022 10 16 0.00 0.00
10:52 am 10:52 Sunny 77 25 66 18.9 69 69 SW 8 13 30.16 1022 10 16 0.00 0.00
11:52 am 11:52 Mostly Sunny 79 26.1 66 18.9 65 65 WSW 7 11 30.14 1021 10 16 0.00 0.00
12:52 pm 12:52 Mostly Sunny 82 27.8 64 17.8 55 55 SW 9 15 30.12 1020 10 16 0.00 0.00
1:52 pm 13:52 Mostly Sunny 83 28.3 65 18.3 55 55 SW 9 15 30.11 1020 10 16 0.00 0.00
2:52 pm 14:52 Partly Cloudy 84 28.9 65 18.3 53 53 SSW 12 19 30.09 1019 10 16 0.00 0.00
3:52 pm 15:52 Partly Cloudy 84 28.9 64 17.8 51 51 SSW 9 15 30.09 1019 10 16 0.00 0.00
4:52 pm 16:52 Mostly Sunny 84 28.9 63 17.2 49 49 SW 13 20 30.07 1018 10 16 0.00 0.00
5:52 pm 17:52 Mostly Sunny 83 28.3 63 17.2 51 51 SW 10 17 30.05 1018 10 16 0.00 0.00
6:52 pm 18:52 Mostly Sunny 81 27.2 63 17.2 54 54 SSW 10 17 30.02 1017 10 16 0.00 0.00
7:52 pm 19:52 Clear 77 25 65 18.3 66 66 S 6 9 30.01 1016 10 16 0.00 0.00
8:52 pm 20:52 Partly Cloudy 76 24.4 65 18.3 69 69 S 6 9 30.01 1016 10 16 0.00 0.00
9:52 pm 21:52 Mostly Clear 74 23.3 65 18.3 74 74 S 7 11 30.02 1017 10 16 0.00 0.00
10:52 pm 22:52 Mostly Clear 72 22.2 65 18.3 79 79 S 6 9 30.02 1017 10 16 0.00 0.00
11:52 pm 23:52 Mostly Clear 71 21.7 65 18.3 81 81 S 7 11 30.03 1017 10 16 0.00 0.00

Powered by AerisWeather